Home   Weather   Lappeenranta   Past weeks

Flag for Finland Past Weather in Lappeenranta, Finland — Yesterday and Last 2 Weeks

Now
55 °F

Broken clouds.


Feels Like: 54 °F
Forecast: 50 / 63 °F
Wind: 7 mph from Northwest

Location: Lappeenranta

Current Time: Aug 30, 2016 at 6:00:28 PM

Latest Report: Aug 30, 2016 at 5:20 PM


Visibility: N/A

Pressure: 29.77 "Hg

Humidity: 82%

Dew Point: 50 °F

Location of LappeenrantaLocation

Past Weather in Lappeenranta — Graph

°F

Lappeenranta Temperature Yesterday

Maximum temperature yesterday: 57 °F (at 12:50 PM)
Minimum temperature yesterday: 48 °F (at 3:50 AM)
Average temperature yesterday: 52 °F

High & Low Weather Summary for the Past Weeks

 TemperatureHumidityPressure
High75 °F (Aug 22, 11:50 AM)100% (Aug 16, 1:20 AM)30.21 "Hg (Aug 16, 1:20 AM)
Low45 °F (Aug 25, 3:20 AM)43% (Aug 27, 5:50 PM)29.56 "Hg (Aug 16, 7:50 AM)
Average59 °F84%29.95 "Hg
* Reported Aug 15 4:20 PM — Aug 30 4:50 PM, Lappeenranta, Weather by CustomWeather, © 2016

Note: Actual official high and low records may vary slightly from our data, if they occured in-between our weather recording intervals... More about our weather records

Advertising

Lappeenranta Weather History for the Previous 24 Hours

Scroll right to see more
 ConditionsComfort  
Time TempWeatherWind HumidityBarometerVisibility
4:50 PM
Tue, Aug 30
57 °FBroken clouds.8 mph82%29.77 "HgN/A
4:20 PM55 °FCloudy.7 mph82%29.74 "HgN/A
3:50 PM54 °FBroken clouds.9 mph88%29.74 "HgN/A
3:20 PM54 °FBroken clouds.7 mph88%29.74 "HgN/A
2:50 PM54 °FPartly sunny.6 mph94%29.74 "HgN/A
2:20 PM54 °FBroken clouds.8 mph88%29.74 "HgN/A
1:50 PM54 °FBroken clouds.6 mph94%29.74 "HgN/A
1:20 PM54 °FPartly sunny.6 mph94%29.71 "HgN/A
12:50 PM54 °FPartly sunny.7 mph94%29.71 "HgN/A
12:20 PM54 °FPartly sunny.6 mph94%29.71 "HgN/A
11:50 AM54 °FPartly sunny.8 mph94%29.68 "HgN/A
11:20 AM52 °FLow clouds.7 mph100%29.68 "HgN/A
10:50 AM52 °FPartly sunny.8 mph100%29.65 "HgN/A
10:20 AM54 °FPartly sunny.8 mph94%29.65 "HgN/A
9:50 AM52 °FPartly sunny.7 mph94%29.65 "HgN/A
9:20 AM52 °FPartly sunny.8 mph94%29.65 "HgN/A
8:50 AM52 °FPartly sunny.9 mph94%29.62 "HgN/A
8:20 AM52 °FPartly sunny.7 mph94%29.62 "HgN/A
7:50 AM52 °FPartly sunny.9 mph94%29.62 "HgN/A
7:20 AM52 °FPartly sunny.9 mph94%29.62 "HgN/A
6:50 AM52 °FPassing clouds.10 mph94%29.62 "Hg6 mi
6:20 AM52 °FPassing clouds.9 mph100%29.62 "Hg4 mi
5:50 AM52 °FPassing clouds.10 mph100%29.59 "HgN/A
5:20 AM52 °FLight rain. Partly cloudy.12 mph94%29.59 "Hg5 mi
4:50 AM52 °FLight rain. Passing clouds.10 mph100%29.59 "Hg3 mi
4:20 AM52 °FSprinkles. Partly cloudy.10 mph100%29.59 "Hg4 mi
3:50 AM52 °FPassing clouds.12 mph94%29.62 "Hg4 mi
3:20 AM52 °FLight rain. Partly cloudy.12 mph94%29.62 "Hg5 mi
2:50 AM52 °FLight rain. Overcast.10 mph100%29.59 "Hg4 mi
2:20 AM52 °FLight rain. Passing clouds.8 mph100%29.62 "Hg3 mi
1:50 AM52 °FLight rain. Passing clouds.8 mph100%29.62 "Hg4 mi
1:20 AM52 °FLight rain. Fog.12 mph100%29.62 "Hg3 mi
12:50 AM52 °FLight rain. Mostly cloudy.9 mph100%29.62 "Hg3 mi
12:20 AM52 °FLight rain. Passing clouds.8 mph100%29.62 "Hg4 mi
11:50 PM
Mon, Aug 29
52 °FLight rain. Fog.8 mph100%29.65 "Hg3 mi
11:20 PM52 °FLight rain. Fog.9 mph94%29.65 "Hg2 mi
10:50 PM52 °FRain. Partly cloudy.9 mph94%29.65 "Hg4 mi
10:20 PM52 °FLight rain. Mostly cloudy.10 mph94%29.65 "Hg2 mi
9:50 PM52 °FLight rain. Fog.10 mph94%29.65 "Hg3 mi
9:20 PM52 °FLight rain. Partly sunny.10 mph94%29.68 "Hg3 mi
8:50 PM50 °FRain. Broken clouds.10 mph100%29.68 "Hg4 mi
8:20 PM50 °FLight rain. Partly sunny.10 mph100%29.68 "Hg4 mi
7:50 PM50 °FRain. Cloudy.13 mph100%29.71 "Hg4 mi
7:20 PM52 °FRain. Broken clouds.12 mph94%29.71 "Hg4 mi
6:50 PM52 °FLight rain. Cloudy.13 mph94%29.71 "Hg5 mi
6:20 PM52 °FLight rain. Overcast.12 mph94%29.74 "HgN/A
Weather by CustomWeather, © 2016

See weather overviewHow to use our weather pages